Regional Weather Roundup
Issued by NWS Albany, NY

Home | Current Version | Previous Version | Text Only | Print | Product List | Glossary On
Versions: 1 2 3 4 5 6 7 8 9 10 11 12 13 14 15 16 17 18 19 20 21 22 23 24 25 26 27 28 29 30 31 32 33 34 35 36 37 38 39 40 41 42 43 44 45 46 47 48 49 50
000
ASUS41 KALY 020710
RWRALY

NEW YORK STATE HOURLY WEATHER ROUNDUP
NATIONAL WEATHER SERVICE ALBANY NY
300 AM EDT TUE SEP 02 2014

NOTE: "FAIR" INDICATES FEW OR NO CLOUDS BELOW 12,000 FEET WITH NO
SIGNIFICANT WEATHER AND/OR NO OBSTRUCTIONS TO VISIBILITY.

NYZ032-033-038>043-046>054-057>066-NYZ062>081-020800-
EAST


CITY           SKY/WX    TMP DP  RH WIND       PRES   REMARKS
ALBANY         MOCLDY    75  70  84 S7        29.87F
GLENS FALLS    PTCLDY    65  64  97 CALM      29.87S FOG
POUGHKEEPSIE   CLEAR     71  69  93 CALM      29.90S FOG
NEWBURGH       CLEAR     72  70  94 CALM      29.94
MONTGOMERY     PTCLDY    68  67  96 CALM      29.91F FOG
WHITE PLAINS   CLEAR     71  70  96 CALM      29.92F
ISLIP          CLEAR     75  72  90 S6        29.91F
NEW YORK CITY  CLEAR     80  73  79 S6        29.91F
CENTRAL PARK   CLEAR     80  72  76 VRB6      29.94F
$$

NYZ005>009-017-018-044>046-055-056-020800-
CENTRAL


CITY           SKY/WX    TMP DP  RH WIND       PRES   REMARKS
FULTON         MOCLDY    72  68  87 S6        29.82S
SYRACUSE       CLOUDY    76  68  76 S8        29.82F
ROME           CLEAR     71  68  90 E7        29.86F
ELMIRA         MOCLDY    67  66  97 SE3       29.88F FOG
BINGHAMTON     MOCLDY    71  68  90 SW9       29.93F
MONTICELLO     CLEAR     66  66 100 CALM      29.97F
$$

NYZ026>034-041>043-020800-
NORTH


CITY           SKY/WX    TMP DP  RH WIND       PRES   REMARKS
WATERTOWN      MOCLDY    75  66  73 S6        29.79F
FORT DRUM      NOT AVBL
MASSENA        MOCLDY    67  66  97 CALM      29.79F
SARANAC LAKE   CLEAR     57  55  93 CALM      29.88F
PLATTSBURGH    PTCLDY    64  63  96 CALM      29.82F
$$

NYZ001>004-010>016-019>021-020800-
WEST


CITY           SKY/WX    TMP DP  RH WIND       PRES   REMARKS
NIAGARA FALLS  MOCLDY    71  68  90 SW12      29.82S
BUFFALO        MOCLDY    71  67  87 SW10      29.83S
DUNKIRK        MOCLDY    72  68  87 S12G24    29.85F
JAMESTOWN      CLOUDY    68  66  94 S6        29.93S
WELLSVILLE     MOCLDY    72  67  84 SW10      29.96S
ROCHESTER      CLOUDY    73  68  84 SW7       29.82R
PENN YAN       MOCLDY    73  68  84 S10       29.86F
$$

             KEY
       WCI = WIND CHILL INDEX
       VSB = VISIBILITY
       HX  = HEAT INDEX
$$


USA.gov is the U.S. government's official web portal to all federal, state and local government web resources and services.